View from above orbital plane
|
View from above satellite
|
Ground track
|
The orbit data is extracted from the following two-line orbital elements,
1 39439U 13066Z 21016.68724765 .00000524 00000-0 69735-4 0 9994
2 39439 97.5858 10.1192 0063666 298.0085 61.4697 14.82395315385465
Epoch (UTC): | 16 January 2021 16:29:38 |
Eccentricity: | 0.0063666 |
inclination: | 97.5858° |
perigee height: | 577 km |
apogee height: | 666 km |
right ascension of ascending node: | 10.1192° |
argument of perigee: | 298.0085° |
revolutions per day: | 14.82395315 |
mean anomaly at epoch: | 61.4697° |
orbit number at epoch: | 38546 |
The dashed part of the orbit path shows where the satellite is in the earth's shadow,
|
|